Preview of NWS' New Version of Forecast
This preview is not operational and should not be used for support decisions.

Regional Weather Roundup (RWR)

Issued by National Weather Service (NWS)

                            
000
ASUS45 KCYS 190310
RWRWY 

WYOMING REGIONAL WEATHER ROUNDUP
NATIONAL WEATHER SERVICE CHEYENNE WY
900 PM MDT SUN AUG 18 2019

NOTE:  "FAIR" INDICATES FEW OR NO CLOUDS BELOW 12,000 FEET
WITH NO SIGNIFICANT WEATHER AND/OR OBSTRUCTIONS TO VISIBILITY.

WYZ001-190400-
...YELLOWSTONE NATIONAL PARK...
  
CITY           SKY/WX    TMP DP  RH WIND       PRES   REMARKS
LK YELLOWSTONE   N/A     54  39  57 CALM      30.21R                  
W YELLOWSTONE  NOT AVBL                                               

$$
WYZ002>013-054>058-071-098>099-190400-
...NORTHERN WYOMING...
  
CITY           SKY/WX    TMP DP  RH WIND       PRES   REMARKS
JACKSON        CLEAR     67  34  29 CALM      30.10R                  
CODY           PTCLDY    70  42  36 SW6       29.96R                  
GREYBULL       MOCLDY    78  45  30 CALM      29.85R                  
WORLAND        PTCLDY    72  37  28 SE9       29.87R                  
SHERIDAN       CLEAR     68  50  52 CALM      29.90R                  
BUFFALO        CLEAR     65  49  56 W8        29.99R                  
GILLETTE       CLEAR     64  55  72 SW5       29.95R                  
HULETT         FAIR      64  54  68 S6        29.97R                  
NEWCASTLE      FAIR      63  50  63 NE5       29.97R                  

$$
WYZ014>020-022>026-101>103-190400-
...CENTRAL WYOMING...
  
CITY           SKY/WX    TMP DP  RH WIND       PRES   REMARKS
BIG PINEY      PTCLDY    64  31  28 NW5       30.16R                  
PINEDALE       PTCLDY    63  36  36 NW6       30.18R                  
DUBOIS         FAIR      64  27  24 W9        30.14R                  
LANDER         MOCLDY    76  32  20 W9        30.01R                  
RIVERTON       PTCLDY    76  32  20 W12       30.00R                  
CASPER         CLEAR     67  31  26 CALM      29.99R                  
DOUGLAS        CLEAR     69  47  45 E9        29.99R                  

$$
WYZ021-027>030-104>119-190400-
...SOUTHERN WYOMING...
  
CITY           SKY/WX    TMP DP  RH WIND       PRES   REMARKS
EVANSTON       PTCLDY    71  28  20 NW8       30.17R                  
KEMMERER       CLEAR     64  23  20 W7        30.19R                  
FORT BRIDGER   NOT AVBL                                               
ROCK SPRINGS   CLEAR     71  25  17 W7        30.15R                  
DIXON          FAIR      64  35  33 E15       30.15R                  
RAWLINS        CLEAR     67  22  18 NW9       30.13R                  
SARATOGA       FAIR      68  27  21 SW8       30.16R                  
LARAMIE        CLEAR     64  27  24 SW7       30.18R                  
CHEYENNE       CLEAR     70  52  52 SW6       30.09R                  
TORRINGTON     CLEAR     72  57  59 E13       29.91R                  
PINE BLUFFS    FAIR      70  50  49 S6        30.01R                  

$$